User: anonymous   Login
Location: Adrasan
(36.3319°N, 30.4314°E)
Time: 18:12:06
(UTC+00:00)
Language:

Meteor 1-26 Rocket - Orbit

View from above orbital plane
View from above orbital plane
View from above satellite
View from above satellite

Ground track
Ground track

The orbit data is extracted from the following two-line orbital elements,

1  9482U 76102B   24107.44107722  .00000005  00000-0 -36010-5 0  9991
2  9482  81.2581 216.7847 0084149 318.0689  41.4056 14.07729183438823
Epoch (UTC): 16 April 2024 10:35:09
Eccentricity: 0.0084149
inclination: 81.2581°
perigee height: 806 km
apogee height: 928 km
right ascension of ascending node: 216.7847°
argument of perigee: 318.0689°
revolutions per day: 14.07729183
mean anomaly at epoch: 41.4056°
orbit number at epoch: 43882

The dashed part of the orbit path shows where the satellite is in the earth's shadow,  

DLR